Location: Piotrkow Trybunalski
(51.4000°N, 19.6830°E)
Time: 12:33:32
(UTC+02:00)

A-11 Canister half - Pass Details

Date: 02 February 2023
Orbit: 1526 x 1682 km, 47.3° (Epoch: 26 March)

Event Time Altitude Azimuth Distance (km) Brightness Sun altitude
Rises 12:27:18 0° 287° (WNW) 4,727 11.5 21.4°
Reaches altitude 10° 12:30:50 10° 277° (W) 3,761 11.2 21.3°
Maximum altitude 12:38:31 29° 222° (SW) 2,621 11.5 21.1°
Drops below altitude 10° 12:46:24 10° 168° (SSE) 3,850 12.5 20.9°
Sets 12:50:06 0° 158° (SSE) 4,857 12.5 20.7°
